UAL1224 KLAX-KTPA

Flight info

Callsign UAL1224
Flight time N/A
Altitude 37000
Route DOTSS2 CNERY BLH ANGRY CNM SJT KH06C RIICE KH90G LLA LEV Y280 CHRGE RAYZZ3
Aircraft B739/M-SDE2E3FGHIRWXY/LB1

Departure

Time 2026-05-03 20:15
Airport Los Angeles International Airport (KLAX)

Arrival

Time N/A
Airport Tampa International Airport (KTPA)
Time Latitude Longitude Altitude Speed Heading
2026-05-03 20:15 33.77017 -118.54070 8790 ft 268 kts 168°
2026-05-03 20:15 33.75215 -118.53573 9438 ft 271 kts 169°
2026-05-03 20:15 33.73363 -118.53070 10085 ft 274 kts 169°
2026-05-03 20:15 33.71463 -118.52502 10382 ft 294 kts 162°
2026-05-03 20:16 33.69714 -118.51063 10567 ft 321 kts 133°
2026-05-03 20:16 33.68611 -118.48675 11057 ft 335 kts 114°
2026-05-03 20:16 33.67839 -118.46017 11664 ft 339 kts 112°
2026-05-03 20:16 33.67087 -118.43315 12266 ft 344 kts 112°
2026-05-03 20:17 33.66309 -118.40587 12874 ft 347 kts 113°
2026-05-03 20:17 33.65503 -118.37836 13505 ft 351 kts 113°
2026-05-03 20:17 33.64700 -118.35096 14119 ft 355 kts 111°
2026-05-03 20:17 33.64327 -118.32127 14643 ft 368 kts 94°
2026-05-03 20:18 33.64349 -118.29036 15199 ft 373 kts 92°
2026-05-03 20:18 33.64387 -118.25900 15738 ft 378 kts 93°
2026-05-03 20:18 33.64420 -118.22723 16299 ft 383 kts 93°
2026-05-03 20:18 33.64443 -118.19505 16832 ft 388 kts 93°
2026-05-03 20:19 33.64455 -118.16245 17364 ft 393 kts 94°
2026-05-03 20:19 33.64460 -118.12942 17918 ft 398 kts 94°
2026-05-03 20:19 33.64461 -118.09603 18438 ft 403 kts 94°
2026-05-03 20:19 33.64459 -118.06258 18872 ft 409 kts 94°
2026-05-03 20:20 33.64455 -118.02829 19322 ft 414 kts 94°
2026-05-03 20:20 33.64450 -117.99351 19763 ft 419 kts 94°
2026-05-03 20:20 33.64444 -117.95827 20179 ft 425 kts 94°
2026-05-03 20:20 33.64438 -117.92252 20559 ft 432 kts 94°
2026-05-03 20:21 33.64431 -117.88617 20926 ft 439 kts 94°
2026-05-03 20:21 33.64424 -117.84936 21363 ft 443 kts 94°
2026-05-03 20:21 33.64413 -117.81217 21807 ft 448 kts 95°
2026-05-03 20:21 33.64077 -117.77521 22187 ft 443 kts 111°
2026-05-03 20:22 33.63212 -117.73969 22619 ft 445 kts 114°
2026-05-03 20:22 33.62281 -117.70404 23015 ft 450 kts 115°
2026-05-03 20:22 33.61348 -117.66847 23437 ft 455 kts 114°
2026-05-03 20:22 33.60409 -117.63206 23816 ft 460 kts 114°
2026-05-03 20:23 33.59477 -117.59518 24195 ft 463 kts 114°
2026-05-03 20:23 33.58550 -117.55801 24583 ft 466 kts 113°
2026-05-03 20:23 33.57626 -117.52063 24979 ft 469 kts 114°
2026-05-03 20:23 33.56696 -117.48300 25366 ft 473 kts 114°
2026-05-03 20:24 33.55757 -117.44508 25720 ft 476 kts 113°
2026-05-03 20:24 33.54811 -117.40694 26103 ft 479 kts 114°
2026-05-03 20:24 33.53856 -117.36856 26407 ft 483 kts 113°
2026-05-03 20:24 33.52892 -117.32987 26722 ft 486 kts 113°
2026-05-03 20:25 33.51937 -117.29155 27124 ft 488 kts 113°
2026-05-03 20:25 33.50962 -117.25252 27488 ft 490 kts 113°
2026-05-03 20:25 33.50269 -117.21205 27700 ft 506 kts 97°
2026-05-03 20:25 33.50200 -117.16970 28093 ft 509 kts 94°
2026-05-03 20:26 33.50203 -117.12729 28517 ft 510 kts 94°
2026-05-03 20:26 33.50211 -117.08459 28841 ft 514 kts 94°
2026-05-03 20:26 33.50201 -117.04167 29137 ft 518 kts 94°
2026-05-03 20:26 33.50166 -116.99842 29451 ft 521 kts 95°
2026-05-03 20:27 33.50113 -116.95495 29781 ft 523 kts 95°
2026-05-03 20:27 33.50049 -116.91128 30101 ft 526 kts 95°
2026-05-03 20:27 33.49978 -116.86735 30338 ft 529 kts 95°
2026-05-03 20:27 33.49906 -116.82382 30570 ft 532 kts 95°
2026-05-03 20:28 33.49833 -116.77941 30802 ft 535 kts 95°
2026-05-03 20:28 33.49759 -116.73477 31024 ft 538 kts 95°
2026-05-03 20:28 33.49685 -116.68987 31241 ft 540 kts 95°
2026-05-03 20:28 33.49609 -116.64477 31440 ft 543 kts 95°
2026-05-03 20:29 33.49531 -116.59942 31627 ft 546 kts 95°
2026-05-03 20:29 33.49452 -116.55392 31858 ft 547 kts 95°
2026-05-03 20:29 33.49370 -116.50836 32147 ft 548 kts 95°
2026-05-03 20:29 33.49287 -116.46266 32363 ft 550 kts 95°
2026-05-03 20:30 33.49202 -116.41674 32559 ft 552 kts 95°
2026-05-03 20:30 33.49128 -116.37128 32799 ft 554 kts 94°
2026-05-03 20:30 33.49063 -116.32519 33105 ft 553 kts 95°
2026-05-03 20:30 33.48998 -116.27909 33256 ft 556 kts 95°
2026-05-03 20:31 33.48929 -116.23275 33460 ft 554 kts 95°
2026-05-03 20:31 33.48859 -116.18686 33964 ft 548 kts 95°
2026-05-03 20:31 33.48786 -116.14126 34260 ft 547 kts 94°
2026-05-03 20:31 33.48710 -116.09571 34404 ft 549 kts 94°
2026-05-03 20:32 33.48662 -116.04985 34525 ft 553 kts 90°
2026-05-03 20:32 33.49240 -116.00424 34653 ft 556 kts 71°
2026-05-03 20:32 33.50519 -115.96144 34955 ft 552 kts 68°
2026-05-03 20:32 33.51874 -115.91856 35278 ft 549 kts 67°
2026-05-03 20:33 33.53209 -115.87581 35569 ft 547 kts 68°
2026-05-03 20:33 33.54509 -115.83294 35752 ft 548 kts 69°
2026-05-03 20:33 33.55780 -115.78987 35940 ft 548 kts 69°
2026-05-03 20:33 33.57033 -115.74671 36174 ft 547 kts 69°
2026-05-03 20:34 33.58277 -115.70360 36399 ft 547 kts 69°
2026-05-03 20:34 33.59525 -115.66048 36562 ft 547 kts 69°
2026-05-03 20:34 33.60756 -115.61801 36742 ft 546 kts 69°
2026-05-03 20:34 33.61785 -115.57422 36782 ft 547 kts 84°
2026-05-03 20:35 33.61902 -115.52897 36855 ft 541 kts 96°
2026-05-03 20:35 33.61532 -115.43839 36811 ft 546 kts 96°
2026-05-03 20:36 33.61216 -115.34738 36809 ft 546 kts 95°
2026-05-03 20:36 33.60975 -115.25686 36804 ft 547 kts 95°
2026-05-03 20:37 33.60747 -115.16585 36810 ft 546 kts 95°
2026-05-03 20:37 33.60505 -115.07489 36809 ft 545 kts 95°
2026-05-03 20:38 33.60252 -114.98417 36774 ft 544 kts 95°
2026-05-03 20:38 33.59992 -114.89375 36828 ft 542 kts 95°
2026-05-03 20:39 33.59729 -114.80410 36836 ft 541 kts 95°
2026-05-03 20:39 33.59390 -114.71394 36832 ft 540 kts 97°